DIRECTV 4S

Last updated on Fri Jan 01 2021 06:25:09 GMT+0000 (Coordinated Universal Time)

1 26985U 01052A 20366.84909684 -.00000086 00000-0 00000-0 0 9998 2 26985 1.1836 93.6796 0002459 281.6392 215.2643 0.99266741 31283
UTC large
Height (km)
Speed (km/s)
/
Latitude / Longitude
Inclination (degrees)
Orbital Period (minutes)
Azimuth
Elevation
Range (km)
Doppler Factor

Next 0 passes for location: London (51.5072 / 0.1276)

Sorry there are no passes over London.